Theta_e
322 318 319 322 309 305 300 303 307 304 303 304 305 302 298 296 297 295 298 299 300 299 302 307 317 321 323 326 328 331 332 334 337 340 342 342 344 345 345 345 345 345 345 345 345 346 346 345 346
318 316 319 316 303 299 301 307 300 300 302 302 301 300 299 292 299 299 298 299 300 300 302 306 314 318 320 322 324 326 328 330 332 335 336 338 340 341 342 342 343 344 344 344 345 346 345 346 346
317 314 314 309 305 300 301 304 299 300 302 302 299 297 296 293 296 296 297 299 300 299 300 304 312 316 317 319 320 321 322 324 327 329 330 332 334 335 337 338 339 339 341 342 343 344 344 344 344
311 315 316 304 301 303 304 303 300 299 300 301 300 291 293 295 295 296 298 299 298 298 299 303 309 312 314 315 317 317 318 319 321 322 324 326 327 328 331 333 333 335 336 338 339 338 339 340 342
312 315 305 303 303 302 303 303 303 299 299 298 299 293 291 294 296 297 297 298 297 297 298 300 305 307 310 312 313 314 314 315 316 317 318 320 321 322 324 327 327 330 331 332 333 333 334 334 336
309 312 301 299 303 300 301 303 302 299 298 297 297 295 291 295 295 296 297 296 297 297 299 299 304 304 306 307 309 310 311 311 311 312 312 314 315 316 317 319 321 322 324 326 328 328 329 329 333
307 307 302 302 303 300 299 302 298 299 296 293 296 293 291 293 295 295 295 297 297 297 297 297 298 301 305 305 305 306 307 308 309 309 309 309 311 312 312 312 315 316 319 320 321 322 323 324 328
310 309 303 304 302 300 299 295 294 295 292 296 295 293 290 291 295 295 295 295 295 295 296 296 297 298 297 298 303 304 305 306 306 306 306 307 307 307 308 307 310 312 314 315 316 317 318 320 322
313 303 301 301 303 297 296 294 292 293 293 292 292 292 292 293 294 294 294 294 294 295 294 295 295 296 297 298 300 302 303 303 303 302 304 303 301 301 302 306 307 309 310 311 313 314 315 315 318
305 303 299 299 298 297 297 298 292 292 290 289 288 290 292 292 292 291 291 291 291 291 293 293 294 295 296 298 297 297 298 297 297 296 298 299 299 300 303 304 306 306 306 308 309 310 309 309 306
302 298 298 297 298 297 295 295 297 297 295 295 290 287 289 290 290 290 289 290 290 291 292 293 294 294 294 295 295 295 295 295 295 294 295 297 298 297 297 297 298 298 301 299 300 301 302 302 302
295 294 295 294 294 298 295 294 292 290 288 292 294 291 290 289 289 290 289 290 290 291 291 292 292 293 294 295 294 293 293 293 292 292 293 294 294 294 294 294 294 295 295 295 296 297 299 300 300
293 292 293 293 293 293 295 293 291 288 288 290 291 291 289 289 288 289 290 290 291 290 290 290 291 292 292 291 291 291 291 290 290 289 290 291 290 290 291 291 291 292 293 293 293 294 295 296 297
293 293 291 292 291 291 290 290 291 289 289 287 288 287 287 288 288 288 289 289 289 290 289 289 289 290 290 289 289 288 288 288 288 288 288 289 289 289 289 289 289 290 291 291 292 292 293 293 294
292 288 289 288 289 288 288 287 287 288 289 288 288 287 288 288 289 288 288 288 288 288 290 288 288 289 288 288 288 287 288 288 287 287 287 287 288 287 287 287 287 288 290 290 290 291 292 291 293
288 288 284 285 286 286 286 283 286 289 287 287 288 287 287 287 287 287 287 287 287 287 287 287 289 287 287 286 287 287 287 286 286 286 286 287 287 287 286 286 286 287 288 288 289 289 289 289 289
285 280 284 282 285 284 283 283 288 289 286 286 286 286 286 285 285 286 286 286 286 286 286 287 287 286 287 287 286 286 286 285 285 285 285 286 287 287 286 285 286 287 286 286 287 288 288 287 288
280 279 281 279 281 282 281 282 286 287 286 285 285 286 285 285 285 286 286 286 285 285 285 286 287 286 286 286 286 286 286 285 285 284 285 286 286 286 285 285 285 286 285 284 285 286 287 286 287
282 279 278 280 281 278 280 282 283 285 285 284 285 285 285 285 286 286 286 285 284 284 284 284 284 285 285 285 284 284 283 283 283 284 286 286 285 286 285 284 284 285 284 283 284 285 285 285 287
280 278 277 279 280 277 278 278 282 284 284 285 284 285 286 286 284 285 284 284 283 283 283 284 284 285 285 285 284 284 282 283 283 285 285 286 285 286 285 284 284 284 283 283 282 283 283 284 286
277 275 275 274 277 278 276 276 279 281 282 285 285 286 286 286 285 282 282 282 282 281 282 283 284 284 284 285 285 284 284 283 282 283 283 284 285 285 285 284 284 283 283 282 281 282 282 281 283
276 276 276 276 275 272 275 270 278 279 280 282 283 283 284 285 286 284 283 282 282 281 282 283 284 284 284 284 284 283 281 279 281 282 283 283 285 284 284 284 283 283 283 281 282 283 281 281 280
275 276 275 275 274 273 273 271 275 278 279 279 280 283 283 285 286 285 284 284 283 283 282 282 283 283 283 283 284 283 281 281 281 282 282 282 283 283 283 284 282 281 282 281 281 280 280 281 280
278 276 275 274 274 268 271 271 273 277 278 279 282 283 284 284 285 286 285 285 283 283 283 282 283 282 283 283 282 282 281 281 280 280 280 281 281 282 282 283 282 281 281 281 281 281 280 280 280
276 274 272 269 268 270 272 270 273 279 279 279 280 281 282 283 284 284 284 283 283 282 282 283 282 282 282 282 282 282 282 281 281 281 280 280 280 280 280 281 280 280 280 281 281 281 280 279 279
275 274 272 265 269 270 273 270 275 280 280 281 281 281 282 282 284 284 284 283 282 283 282 283 282 282 282 282 282 282 282 281 281 281 280 280 279 280 280 280 280 280 281 280 280 280 280 279 280
273 270 273 267 266 266 272 275 278 279 279 280 279 281 280 280 282 284 285 284 283 283 283 283 282 282 282 282 282 282 282 281 281 281 281 280 280 282 280 280 280 280 280 280 279 279 279 279 279
273 275 270 270 262 262 272 272 272 276 278 280 280 279 280 280 280 283 284 284 284 283 283 283 283 283 282 282 282 283 282 282 282 281 280 280 281 281 280 280 279 279 279 279 279 279 279 278 278
270 271 272 273 271 267 266 270 278 278 280 279 279 280 280 281 282 282 284 284 284 284 284 283 283 283 282 282 282 282 282 282 281 281 281 281 281 280 280 280 279 279 278 279 278 278 278 277 278
272 273 273 269 267 268 269 268 280 280 280 280 279 281 280 280 282 282 283 284 283 283 283 283 283 283 283 283 283 282 282 282 281 280 281 281 280 281 280 280 279 279 278 278 277 277 277 277 277
Wind_Speed
16 11 7 3 2 3 8 3 8 6 5 6 9 7 12 14 7 2 6 6 6 6 8 12 17 17 18 18 18 18 18 18 18 18 18 17 16 16 13 12 11 10 10 10 9 10 10 3 2
7 9 2 4 3 5 4 6 12 12 7 4 8 10 9 7 9 9 6 7 6 8 9 11 15 16 17 18 18 18 18 18 18 17 16 16 16 16 15 14 15 14 12 11 11 11 10 11 4
9 8 2 3 5 6 3 6 10 8 6 6 5 10 7 5 7 5 6 5 7 7 9 11 14 15 16 16 16 17 17 17 17 17 17 17 16 16 16 15 16 13 12 12 11 11 12 11 9
4 3 4 3 9 4 6 8 10 7 6 6 6 8 7 8 5 5 4 5 7 7 7 10 13 15 16 16 16 17 16 17 16 15 15 15 15 15 16 16 16 14 14 14 13 12 12 13 11
3 4 3 4 8 6 7 8 7 7 5 7 5 5 6 5 6 6 6 7 7 7 6 7 13 13 15 15 16 16 17 17 17 16 15 15 15 15 15 17 17 15 14 14 14 13 13 13 13
3 1 2 5 5 7 5 6 5 11 9 4 5 6 5 5 6 5 5 7 7 7 7 7 9 9 11 15 16 16 17 17 16 17 15 13 15 15 17 16 16 15 14 15 14 14 13 14 12
4 3 7 11 11 6 7 5 3 7 9 4 5 4 4 7 6 4 4 6 7 7 7 6 7 8 10 13 14 15 17 17 17 16 16 14 13 14 15 16 16 17 15 15 15 15 15 14 12
3 4 12 10 7 4 7 5 6 8 5 4 4 4 5 6 5 3 3 5 7 7 7 7 6 6 5 5 10 13 15 17 18 17 17 14 15 15 14 15 16 17 15 15 15 16 15 15 14
4 3 7 5 5 5 8 5 3 2 6 5 4 4 8 7 4 4 3 6 6 7 7 7 6 6 6 5 6 10 13 16 18 16 17 10 6 7 8 12 15 15 17 16 16 16 17 18 12
3 3 4 6 6 5 6 2 8 4 5 2 5 5 9 7 6 5 5 6 6 6 6 6 6 7 6 7 6 6 8 5 7 10 9 7 7 7 9 9 16 17 19 18 18 18 17 11 6
4 3 3 7 6 9 5 5 5 3 4 6 6 11 10 8 4 6 6 5 6 5 4 7 6 6 6 4 4 3 3 4 4 10 9 6 6 5 5 4 5 6 12 7 10 9 6 7 6
2 5 5 4 4 2 3 4 3 4 4 5 8 12 8 9 8 5 5 6 6 4 5 6 6 6 6 5 4 4 4 5 6 8 11 7 5 6 6 6 7 7 6 8 6 6 7 7 8
3 5 5 4 6 6 1 2 2 5 5 9 10 9 7 6 8 4 4 3 4 5 5 6 6 6 5 6 4 5 5 4 6 7 9 8 6 6 6 6 6 6 7 6 6 7 6 6 8
4 6 6 4 5 5 4 3 1 8 8 7 7 6 6 6 7 6 5 6 4 5 5 6 6 6 6 5 7 5 4 5 5 6 7 9 6 6 6 6 6 6 6 6 5 7 6 7 7
6 5 5 5 3 4 4 4 3 10 9 9 8 8 8 7 6 6 5 6 6 5 4 6 5 6 6 6 5 4 5 5 4 4 6 8 8 6 6 5 6 7 6 9 6 7 6 7 7
4 2 4 3 4 2 3 3 5 8 8 8 8 7 7 7 6 6 6 5 5 5 5 4 5 5 6 6 5 4 4 4 5 5 5 7 8 7 6 5 6 7 6 8 7 7 6 7 8
3 3 5 4 3 2 2 4 5 7 7 7 8 8 8 7 7 6 6 6 6 6 6 4 4 5 5 5 4 5 6 5 4 5 5 7 8 9 5 5 6 6 7 7 8 7 6 8 8
3 3 3 0 1 2 6 12 8 11 9 9 7 8 8 8 9 8 7 6 6 5 5 5 4 4 2 3 4 4 4 4 4 4 5 7 6 8 6 5 7 5 6 7 9 9 8 6 9
4 2 1 5 2 2 7 10 9 8 9 8 8 7 9 9 10 9 8 7 7 6 6 6 5 3 2 0 3 4 3 4 4 4 6 6 6 7 7 5 6 6 7 8 10 7 10 10 11
0 1 0 4 2 1 6 14 11 10 9 11 11 9 9 9 9 11 9 8 7 7 7 5 6 4 3 3 2 3 4 3 3 4 5 6 6 7 7 6 6 6 5 8 8 10 7 5 9
4 3 4 2 4 4 6 6 3 1 3 1 8 7 6 11 11 11 9 8 6 7 7 6 6 5 4 5 3 2 2 1 3 4 3 4 5 6 6 6 5 6 5 6 5 8 8 6 5
4 3 0 2 5 2 2 5 5 4 5 4 3 7 8 8 9 12 11 10 9 6 6 6 6 5 4 3 2 1 2 4 1 3 2 3 5 5 6 6 6 6 4 6 6 6 5 5 6
3 1 3 2 3 4 3 4 5 1 6 4 4 6 7 8 10 11 14 12 9 9 8 7 7 6 5 2 4 3 4 3 2 2 3 3 3 5 6 6 6 6 4 5 6 5 6 4 3
4 2 2 1 1 3 3 4 4 3 1 2 4 6 5 4 8 10 11 11 8 8 9 8 9 7 6 5 2 3 6 4 3 1 2 2 2 3 5 5 5 5 5 5 5 5 6 5 5
2 1 2 5 4 4 2 2 10 1 4 3 5 6 7 9 5 8 10 9 9 9 8 7 9 8 8 7 6 4 5 2 4 2 2 2 2 2 3 3 4 3 4 5 5 5 5 5 4
4 2 5 7 4 1 1 6 8 4 3 2 3 3 2 4 1 7 9 9 9 10 9 8 8 8 9 8 7 6 5 3 2 2 2 1 2 2 2 3 3 4 4 5 5 3 4 5 4
3 2 1 7 3 4 6 5 5 5 4 4 4 3 4 3 2 7 8 9 8 9 10 9 9 8 8 9 7 7 6 4 4 4 3 2 2 2 2 0 2 3 3 4 5 3 4 4 4
2 3 3 2 2 4 6 4 7 7 8 7 6 5 5 3 2 3 7 10 9 10 9 9 8 9 8 8 7 6 7 6 5 4 4 3 3 3 3 2 1 1 2 3 3 3 4 4 3
2 2 0 2 4 5 2 8 5 9 9 9 7 4 5 5 4 5 7 8 10 10 12 10 9 10 8 8 8 7 7 7 6 5 4 4 3 4 3 3 2 2 1 2 2 3 3 4 4
2 2 5 6 6 1 1 9 4 8 5 9 7 6 4 2 4 6 6 6 7 8 8 9 8 9 8 7 7 7 7 7 6 5 5 5 5 3 5 3 3 4 3 2 2 3 4 4 4
Wind_Direction
315 316 303 274 257 216 274 224 94 75 65 40 22 22 95 39 21 104 91 35 20 43 55 16 15 20 20 19 18 22 24 23 25 24 26 26 22 29 28 34 33 26 21 20 16 21 9 279 203
313 302 225 267 237 240 252 55 51 53 72 57 46 338 46 73 57 111 118 17 27 42 51 25 19 23 22 22 19 22 23 24 22 23 24 28 30 31 25 25 24 24 20 19 19 18 15 6 240
269 275 290 236 230 273 71 72 94 79 54 33 105 40 21 44 37 75 41 5 53 50 54 30 26 29 26 24 24 23 23 23 23 22 21 26 27 25 24 28 28 20 14 12 15 15 17 13 4
318 191 256 260 283 64 62 81 109 107 80 28 97 67 93 28 48 44 70 42 59 49 51 48 34 33 29 27 26 26 25 24 24 24 24 24 25 27 25 31 24 18 16 13 17 11 4 3 1
224 263 256 248 268 89 61 88 141 101 73 48 333 109 77 73 81 46 47 37 36 57 36 66 41 35 33 30 29 29 26 25 24 22 23 27 28 28 25 23 23 16 17 18 16 11 3 356 350
251 273 311 252 249 106 75 98 65 79 90 55 90 103 83 124 81 42 42 65 42 39 35 26 47 37 44 33 30 28 27 25 23 21 20 23 27 30 26 24 20 14 13 16 12 8 4 359 351
248 241 239 235 243 130 131 97 138 103 133 83 345 66 98 120 92 61 44 66 62 39 39 35 20 20 39 49 33 29 27 24 22 22 18 16 27 22 30 22 16 16 11 14 9 7 2 0 354
315 264 265 275 265 103 120 64 347 25 87 103 325 109 135 110 107 128 94 74 73 53 32 22 26 16 18 37 35 34 27 28 23 18 16 16 26 17 27 23 11 14 9 11 7 6 5 5 10
292 262 256 331 22 87 122 121 31 344 103 59 26 76 107 113 140 161 180 78 44 45 35 28 21 11 0 41 40 38 30 32 27 14 14 8 16 3 9 17 14 14 10 10 9 10 9 4 3
256 243 50 10 19 52 144 328 130 158 130 110 104 93 121 151 144 103 48 63 49 29 32 27 21 14 13 26 32 26 30 24 36 12 360 5 18 3 15 8 18 13 17 11 12 13 11 5 355
40 358 351 50 9 349 58 96 119 226 184 155 188 167 142 130 117 122 97 76 69 44 33 21 21 23 8 18 41 33 19 26 27 24 8 6 13 2 7 8 11 9 10 5 8 4 359 355 359
198 61 31 22 3 12 84 32 109 20 68 12 121 150 150 140 150 139 129 107 78 52 46 37 25 29 10 31 37 32 35 31 32 24 15 9 11 12 13 13 9 13 0 359 1 356 351 357 359
68 95 66 79 50 42 26 84 347 143 94 79 113 140 160 121 95 68 92 106 140 86 66 49 39 43 29 29 38 32 40 37 45 27 18 14 18 10 16 14 10 7 2 359 356 353 349 355 356
89 96 101 58 70 56 333 144 271 110 131 122 141 139 138 156 162 150 163 176 130 102 78 62 46 46 53 43 44 35 40 34 39 40 25 16 12 16 21 12 8 2 2 355 352 0 357 359 358
147 117 144 63 24 60 329 232 240 132 157 161 180 173 179 187 172 182 121 97 98 77 80 63 66 43 57 63 59 47 37 45 44 38 31 23 16 19 17 16 7 1 3 1 351 7 357 7 358
207 280 190 48 327 98 313 236 120 149 173 193 190 182 177 170 175 141 134 131 133 126 97 86 73 62 64 60 54 53 45 48 42 35 24 29 18 14 23 19 9 4 6 8 359 1 1 11 357
208 268 191 132 30 343 220 285 153 166 199 222 197 194 176 172 182 146 160 153 139 120 128 127 100 82 74 76 84 64 53 51 43 36 27 22 21 15 26 22 5 12 9 10 3 359 3 9 355
174 208 101 319 36 225 247 257 244 196 200 214 222 194 184 185 178 158 159 136 130 125 113 119 119 115 125 144 120 98 76 64 58 29 36 31 16 21 17 19 13 8 18 14 9 6 355 14 352
358 32 291 110 109 304 247 269 255 194 199 218 223 223 190 183 171 152 151 154 157 151 151 150 135 145 204 329 89 72 69 70 57 57 33 37 22 17 19 13 13 10 25 16 12 355 1 14 6
131 260 345 87 98 239 314 287 272 239 207 197 192 214 200 173 151 150 153 163 179 169 168 150 127 129 60 66 35 69 103 76 100 85 49 32 30 23 33 17 15 18 18 15 18 12 5 1 11
40 358 45 34 299 229 294 282 192 39 30 105 169 187 210 176 169 157 161 168 186 179 170 159 137 119 100 101 91 67 44 81 61 56 65 31 34 32 28 26 23 19 28 19 12 16 13 7 354
146 12 80 321 352 325 194 283 338 122 148 123 124 184 208 204 168 160 163 168 179 188 164 152 141 134 127 180 174 146 114 105 96 105 81 82 50 38 31 29 30 25 26 21 14 20 14 6 20
134 300 38 345 305 38 161 92 242 139 80 76 97 190 214 210 175 165 168 171 174 166 161 161 156 154 136 159 131 107 96 120 125 112 117 106 91 66 35 34 33 32 28 21 16 14 22 9 32
156 168 173 276 325 31 88 122 274 135 102 339 39 27 21 235 174 158 161 158 166 158 157 163 162 160 160 152 163 122 131 152 133 110 112 121 111 89 45 38 37 38 27 19 4 21 31 14 18
303 165 61 9 12 225 70 84 241 61 56 358 335 354 5 342 157 150 146 155 159 158 164 171 165 170 164 170 172 156 139 129 120 146 97 43 66 61 39 43 39 33 26 18 8 22 27 16 15
205 75 153 188 189 217 305 230 252 126 78 61 31 84 333 337 118 158 159 158 163 160 170 181 174 175 168 176 180 173 156 162 151 136 104 99 84 90 58 24 32 38 33 22 6 18 13 15 4
179 216 41 98 27 50 223 258 28 130 183 138 110 126 82 28 7 167 164 158 165 164 181 182 174 185 176 177 178 174 170 175 174 162 155 183 136 159 141 329 10 29 34 33 7 5 9 10 350
67 311 99 352 133 271 271 244 217 208 173 149 104 87 114 92 350 205 180 171 171 171 177 180 184 191 176 173 173 180 178 180 183 169 187 203 190 161 203 224 272 353 18 30 14 358 357 352 337
163 209 10 87 148 186 255 264 246 158 172 153 130 105 101 136 191 235 217 197 181 170 174 180 182 179 184 175 178 178 180 180 181 182 200 208 206 194 199 226 253 286 315 357 4 345 338 333 329
328 248 177 134 232 206 149 270 216 167 131 128 155 143 121 157 226 230 252 232 187 179 173 181 182 178 179 169 170 178 177 177 184 196 208 205 212 221 204 216 235 258 269 300 314 315 316 316 320